Temperature
25 25 24 24 27 28 30 32 32 32 32 32 31 31 30 28 27 26 25 23 22 22 22 21 21 20 20 19 19 19 19 19 19 19 19 19 19 18 18 18 18 18 18 18 18 18 18 18 18
25 24 25 27 28 28 30 32 32 32 32 32 31 30 29 28 27 26 24 23 22 22 22 21 21 20 20 19 19 19 19 19 19 19 19 18 18 18 18 18 18 18 18 18 18 18 18 18 18
25 25 27 29 29 29 31 32 32 33 32 32 31 30 29 28 27 25 24 23 21 21 21 21 21 20 20 19 19 19 19 19 18 18 18 18 18 18 18 18 18 18 18 18 18 18 18 18 18
25 28 29 30 30 32 33 33 33 33 32 32 31 29 28 27 26 25 24 23 21 21 21 21 21 20 20 19 19 19 19 19 18 18 18 18 18 18 18 18 18 18 18 18 18 18 18 18 18
27 29 29 30 31 33 34 34 33 33 32 32 30 29 27 26 25 24 24 23 21 20 21 21 21 20 20 19 19 19 19 19 18 18 18 18 18 18 18 18 18 18 18 18 18 18 18 18 18
29 30 29 30 32 34 34 34 33 33 32 31 30 28 26 26 25 24 24 23 22 21 21 21 21 20 20 19 19 19 19 19 18 18 18 18 18 18 18 18 18 18 18 18 18 18 18 18 18
30 30 30 31 32 33 34 34 34 33 32 32 30 27 26 26 25 25 24 24 22 21 21 21 21 20 20 19 19 19 19 19 18 18 18 18 18 18 18 18 18 18 18 18 18 18 18 18 18
30 32 31 32 32 33 34 34 34 33 32 32 30 27 26 26 25 25 24 24 23 21 21 21 21 20 20 19 19 19 19 19 19 19 18 18 18 18 18 18 18 18 18 18 18 18 18 18 18
31 31 31 32 33 33 34 34 34 33 31 31 30 29 27 26 25 25 24 24 23 21 20 20 20 20 19 19 19 19 19 19 19 19 18 18 18 18 18 18 18 18 18 18 18 18 18 18 18
32 31 32 34 34 34 34 34 34 33 31 30 29 28 26 26 25 25 24 24 23 22 21 20 19 19 19 18 19 19 18 19 18 18 18 18 18 17 18 18 18 18 18 18 18 18 18 18 18
33 32 33 34 34 34 34 34 34 33 31 30 29 28 26 26 25 25 24 24 23 22 21 20 20 19 19 19 19 18 18 18 18 18 18 18 18 18 18 18 18 18 18 18 18 18 18 18 18
33 33 34 34 34 34 34 34 34 33 32 31 30 28 26 26 25 25 24 23 22 22 21 21 20 19 19 19 19 18 18 18 18 18 18 18 18 18 18 18 18 18 18 18 18 18 18 18 18
33 34 34 34 34 34 34 34 34 33 32 31 30 28 27 26 25 24 24 23 22 21 21 20 20 20 19 19 19 19 18 18 18 18 18 18 18 18 18 18 18 18 18 18 18 18 18 18 18
34 34 34 34 34 34 34 34 34 33 32 31 30 29 27 26 25 24 23 23 22 21 21 20 20 19 19 19 19 19 18 18 18 18 18 18 18 18 18 18 18 18 18 18 18 18 18 18 18
33 33 33 34 34 34 34 33 33 32 32 31 30 29 28 27 25 24 23 22 21 21 20 20 20 19 19 19 19 18 19 18 18 18 18 18 18 18 18 18 18 18 18 18 18 18 18 18 18
33 32 32 34 35 34 33 31 33 32 32 31 31 30 28 27 25 24 23 22 21 20 20 20 19 19 19 19 18 18 18 19 18 18 18 18 18 18 18 18 18 18 18 18 18 18 18 18 18
32 32 33 34 35 34 33 32 32 32 31 31 31 29 28 26 25 24 23 21 21 20 20 19 19 19 19 18 18 18 18 18 18 18 18 18 18 18 18 18 18 18 18 18 18 18 18 18 18
32 33 34 34 34 34 33 33 33 33 32 31 30 29 27 26 25 23 22 21 20 20 20 19 19 19 18 18 18 18 18 18 18 18 18 18 18 18 18 18 18 18 18 18 18 18 18 18 18
33 33 33 34 34 33 33 33 33 33 33 32 30 29 27 26 25 23 22 21 20 19 19 19 19 18 18 18 18 18 18 18 18 18 18 18 18 18 18 18 18 18 18 18 18 18 18 18 18
32 32 33 34 34 33 32 33 34 34 33 32 31 29 28 26 24 22 21 20 20 19 19 19 18 18 18 18 18 18 18 18 18 18 18 18 18 18 18 18 18 18 18 18 17 18 18 18 18
32 32 32 33 34 33 32 32 33 33 33 32 31 30 28 26 24 22 21 20 20 19 19 18 18 18 18 18 18 17 17 17 17 17 17 18 18 18 18 18 18 18 18 18 17 17 18 18 18
31 32 33 32 32 32 32 31 32 32 32 32 31 30 29 27 25 23 21 20 20 19 19 18 18 18 18 18 18 17 17 18 18 17 17 17 17 17 18 18 18 18 18 17 17 17 18 18 18
32 33 33 32 31 31 32 31 31 32 30 31 31 30 29 27 25 23 22 21 20 19 19 18 18 18 18 18 18 18 18 18 18 17 17 17 17 17 17 17 18 18 18 17 17 17 17 18 18
33 32 32 31 31 29 31 31 30 31 30 31 31 30 29 27 25 24 22 21 20 19 19 18 18 18 18 18 18 18 18 18 17 17 17 17 17 17 17 17 17 18 18 17 17 17 17 17 17
32 30 29 29 29 29 31 31 31 32 32 31 31 30 29 27 26 24 22 21 20 19 19 18 18 18 18 18 17 17 17 17 17 17 17 17 17 17 17 17 17 17 17 17 17 17 17 17 17
31 31 29 28 29 29 30 29 30 33 32 32 31 29 29 27 26 24 22 21 20 20 19 18 18 18 18 17 17 17 17 17 17 17 17 17 17 17 17 17 17 17 17 17 17 17 17 17 17
31 31 32 31 30 29 29 30 30 32 32 31 30 29 28 27 25 24 23 21 21 20 19 18 18 18 18 18 17 17 17 17 17 17 17 17 17 17 17 17 17 17 17 17 17 17 17 17 17
32 32 31 30 29 29 30 30 29 30 30 31 30 29 28 27 26 24 23 22 21 20 19 19 18 18 18 17 17 17 17 17 17 17 17 17 17 17 17 17 17 17 17 17 17 17 17 17 17
31 31 31 31 30 29 29 28 30 29 29 30 30 29 28 27 26 24 23 22 21 20 19 19 18 18 18 17 17 17 17 17 17 17 17 17 17 17 17 17 17 17 17 17 17 17 17 17 16
32 31 31 29 29 30 29 28 30 29 30 30 30 29 28 26 25 24 23 22 21 20 19 19 18 18 18 17 17 17 17 17 17 17 17 17 17 17 17 17 17 17 17 17 17 17 16 16 16
Wind_Speed
10 12 10 6 4 1 8 14 15 15 14 12 13 14 18 16 11 12 16 23 24 21 20 18 17 17 17 17 17 17 16 15 15 14 14 14 14 14 15 15 15 16 16 16 16 16 15 15 14
10 13 9 4 2 4 10 13 14 13 11 10 14 18 19 17 16 16 19 22 23 21 19 18 18 18 17 17 17 16 16 15 14 14 14 14 14 14 15 15 16 16 16 16 16 15 15 14 13
11 15 6 3 0 5 10 12 12 12 10 11 15 17 15 13 15 15 20 23 22 19 20 20 19 18 18 17 17 16 15 15 14 14 13 14 14 14 14 15 16 16 16 16 15 15 15 13 12
8 7 5 3 1 6 9 10 9 10 10 10 13 12 13 11 14 19 21 23 22 20 20 20 19 18 18 17 16 16 15 15 14 13 13 13 13 14 14 15 15 15 15 15 15 15 14 13 10
9 5 4 3 2 8 9 9 9 9 9 11 15 16 14 14 19 21 20 22 21 20 20 20 19 18 17 16 16 15 15 14 14 13 13 13 13 13 14 14 14 15 15 14 14 14 13 11 9
6 4 5 2 2 7 8 7 7 9 9 9 14 15 11 14 17 19 19 19 20 21 20 20 19 18 17 16 16 15 15 14 13 13 13 13 13 13 13 14 14 14 14 14 13 13 12 10 7
11 9 8 4 1 6 6 5 6 7 7 8 14 13 8 14 17 18 17 17 20 21 19 18 18 17 17 16 15 15 14 14 13 13 13 13 13 13 13 13 13 13 13 12 12 11 10 9 5
10 9 9 4 2 5 5 4 6 7 6 5 11 10 11 16 18 17 16 17 18 19 19 16 17 17 16 15 15 15 14 14 13 13 13 13 13 13 13 13 12 12 11 11 11 10 9 7 5
11 9 8 4 2 4 5 3 4 7 6 5 10 14 17 21 20 18 16 15 15 17 17 16 16 16 16 16 16 15 14 13 13 12 12 12 11 12 11 13 12 11 10 10 9 9 8 7 5
8 8 7 4 5 4 4 2 1 5 5 6 11 17 21 21 20 18 17 17 16 15 15 15 15 13 13 14 15 13 13 13 12 11 12 9 8 10 12 14 12 11 10 9 8 8 8 7 6
10 11 9 6 4 5 3 2 1 3 5 5 10 17 20 20 18 17 16 15 15 14 12 13 13 10 10 10 11 10 11 11 11 11 11 9 9 10 13 11 10 10 10 9 9 8 8 7 5
11 11 9 7 5 6 6 5 3 1 4 9 13 17 19 19 18 17 16 14 14 12 12 12 12 9 8 9 8 8 8 8 7 10 10 8 5 5 8 7 9 9 8 7 7 6 7 5 4
11 11 10 8 8 7 7 7 5 1 5 9 13 16 18 17 16 14 14 13 13 11 11 11 10 8 7 6 5 6 6 7 8 9 7 8 5 4 5 4 5 7 7 6 3 2 4 3 3
11 11 11 10 10 9 9 8 6 3 5 8 10 13 15 15 16 15 14 12 13 12 11 11 11 9 7 6 4 4 6 7 9 9 9 8 6 5 4 3 2 3 4 4 4 3 3 2 2
11 13 14 14 12 9 8 7 6 3 4 7 9 11 13 14 14 14 14 13 14 12 11 11 11 10 9 8 6 5 6 8 6 8 9 7 6 8 5 3 2 2 5 5 3 2 3 3 3
12 13 16 14 10 7 7 7 3 4 5 6 7 10 12 11 13 13 13 12 12 12 11 11 12 11 10 8 5 4 5 6 6 8 9 7 7 9 5 3 3 4 5 3 2 2 2 2 3
15 15 15 8 8 5 7 5 4 6 6 6 7 9 12 12 12 12 13 13 12 11 11 10 10 11 11 9 6 4 2 3 5 7 9 8 8 9 6 3 3 4 2 2 3 3 2 2 3
12 11 9 5 7 5 7 7 5 6 7 7 6 8 11 12 12 12 12 12 11 11 11 10 9 10 10 8 5 4 4 3 4 5 7 9 8 8 6 4 4 3 2 2 2 3 2 1 1
16 13 11 4 3 2 8 9 6 7 6 7 9 9 10 12 12 12 12 12 12 11 11 11 11 11 9 8 7 6 6 5 4 4 8 9 8 8 4 3 4 2 2 3 4 3 3 2 2
14 13 12 8 4 4 9 11 9 6 5 5 7 10 11 12 13 12 11 11 11 11 11 11 10 11 10 8 7 6 6 5 5 4 6 9 8 8 7 4 4 4 2 2 2 2 1 2 2
13 13 12 11 6 7 11 13 10 6 6 7 7 9 10 13 15 14 13 12 11 11 11 11 10 11 10 9 6 6 5 4 5 5 5 7 8 8 6 6 4 5 5 4 4 4 4 2 2
13 13 12 12 11 10 11 10 6 8 7 8 8 9 11 12 15 15 14 12 12 11 11 10 10 10 10 10 9 9 8 7 6 6 6 6 7 8 8 7 5 4 4 5 6 6 3 3 2
14 11 9 11 12 14 14 11 5 7 8 9 10 9 10 11 14 15 14 12 11 11 11 10 10 9 9 9 9 9 7 6 5 5 7 7 6 7 8 7 6 5 4 5 5 3 3 3 3
12 11 9 11 12 15 15 13 6 6 8 8 8 9 10 10 12 13 13 12 10 10 10 9 10 9 9 9 9 9 8 7 7 7 7 7 6 6 7 7 6 5 4 4 4 3 5 3 2
13 11 9 10 11 12 10 10 4 7 7 6 9 9 10 11 12 13 13 12 11 11 10 10 10 9 9 10 9 9 8 7 8 8 8 7 7 6 7 7 6 5 4 4 4 4 4 4 3
16 16 13 10 8 6 6 6 3 7 9 8 9 10 10 12 12 12 12 11 11 10 10 10 10 9 9 9 8 7 7 6 6 7 6 7 6 6 7 7 6 6 6 6 4 4 4 4 4
17 17 19 17 17 10 6 6 5 7 10 9 10 11 11 12 12 12 12 11 10 10 10 10 10 8 8 8 7 7 7 7 6 6 6 5 5 6 8 8 8 6 6 5 5 4 4 4 4
19 16 12 14 12 13 8 9 8 10 9 10 10 11 12 12 12 13 11 10 9 9 9 9 9 8 7 7 7 7 7 7 6 6 6 5 5 5 6 7 7 7 6 5 5 4 4 4 4
18 18 14 11 12 12 9 2 2 8 9 9 11 12 13 12 12 12 11 10 9 9 9 8 8 8 7 7 7 6 6 7 7 6 6 5 5 5 5 5 6 6 6 6 5 5 4 5 4
18 19 17 12 11 11 10 3 6 9 8 8 10 11 12 12 12 12 12 10 9 9 8 8 8 8 7 7 7 6 6 6 7 6 6 6 6 5 5 5 5 6 6 6 6 6 5 5 4
Wind_Direction
251 251 242 261 263 289 67 71 69 66 65 61 58 63 64 55 70 94 119 119 119 123 127 128 126 127 127 125 122 120 117 113 109 105 103 100 98 98 98 98 99 98 98 99 99 98 97 97 98
270 267 255 254 291 66 76 76 73 70 70 69 67 70 73 69 85 107 117 120 121 126 132 128 127 126 126 126 124 122 119 117 113 109 107 104 102 100 99 99 100 99 100 99 100 101 101 100 101
269 268 268 236 189 78 78 79 82 86 78 75 75 66 68 87 100 114 123 125 124 126 124 127 130 128 126 126 125 123 121 119 116 112 109 106 104 103 102 102 101 101 101 101 101 101 102 103 103
272 263 248 267 73 93 84 86 88 90 88 81 87 83 74 83 110 123 131 127 124 126 127 131 131 129 129 128 127 126 124 122 119 115 111 109 107 106 104 104 103 103 103 102 102 103 103 103 104
262 271 282 303 23 88 81 81 84 84 77 83 91 93 87 92 114 129 134 130 133 131 129 134 134 132 132 131 130 128 126 124 122 118 115 112 110 109 107 106 105 106 105 104 104 105 105 104 106
268 271 279 289 78 89 84 82 84 90 91 97 101 97 99 115 126 138 139 139 136 131 132 135 137 136 136 135 134 132 129 128 126 122 118 116 114 112 112 111 110 109 107 107 106 106 108 108 109
268 280 269 257 131 96 86 89 83 83 85 91 101 98 121 135 139 144 143 140 135 133 133 141 142 141 140 139 138 136 133 131 129 127 124 121 120 119 117 115 114 114 113 112 112 111 112 116 120
274 296 301 281 130 89 86 79 93 94 89 99 105 119 150 146 148 146 145 141 137 136 140 146 147 146 148 145 142 140 138 137 134 135 135 132 131 129 128 124 120 120 120 120 121 122 124 132 144
270 277 292 330 38 88 76 49 98 107 108 80 81 123 148 148 150 149 149 146 142 141 144 152 149 152 155 151 147 146 145 145 145 147 150 151 151 143 144 125 130 130 131 133 136 138 142 152 174
254 274 296 358 8 33 66 357 27 106 94 87 96 119 139 149 154 159 160 156 150 145 152 151 149 156 157 150 147 155 156 157 165 159 167 180 154 145 133 134 141 145 147 151 158 161 170 185 184
256 270 301 323 351 339 331 305 326 112 125 146 135 138 148 156 161 166 165 161 152 150 152 148 149 156 155 141 157 164 156 165 172 166 175 171 148 143 137 148 152 162 170 178 168 183 203 204 197
257 276 287 299 318 302 300 305 312 48 129 149 145 151 155 163 169 172 168 162 152 154 153 148 149 156 150 149 160 158 152 163 165 164 177 160 161 147 148 157 165 174 183 177 175 193 195 187 158
257 268 275 278 277 275 285 284 282 193 130 127 138 150 159 169 171 171 164 159 152 158 153 143 144 148 145 141 162 159 149 165 160 163 178 162 161 150 143 146 164 178 167 163 175 173 143 144 143
277 279 277 271 263 263 263 263 250 208 149 135 146 157 167 172 172 168 162 160 158 162 155 149 152 156 149 147 160 144 155 158 159 162 169 178 158 136 134 149 178 166 143 135 143 143 131 120 100
271 280 273 258 248 247 258 267 248 196 174 160 165 164 165 165 165 165 164 163 163 161 158 157 159 160 159 158 170 168 171 168 158 152 157 175 154 142 153 157 188 155 129 125 135 139 137 155 148
261 259 258 246 228 225 239 259 204 170 199 180 172 159 153 151 161 162 159 159 161 164 162 164 171 165 164 162 176 178 183 155 148 151 153 171 154 153 164 161 173 147 137 151 136 166 165 145 130
247 245 252 225 200 217 239 243 196 184 196 186 170 156 150 153 160 157 159 160 163 164 163 170 169 162 165 164 173 181 170 145 147 152 156 168 169 167 176 148 131 162 153 162 179 147 151 140 146
262 254 253 230 173 207 256 254 212 184 204 177 160 156 152 159 159 155 155 156 158 160 161 169 167 160 159 161 168 176 169 158 154 155 160 163 173 178 183 156 162 190 166 142 97 116 98 133 192
281 299 303 294 136 238 268 269 238 204 201 170 164 162 161 160 151 148 156 159 161 161 164 170 172 164 161 165 175 182 182 174 169 171 169 170 180 183 202 156 159 181 171 158 151 152 167 204 187
266 276 276 268 212 244 273 271 253 206 191 173 171 162 163 153 146 152 158 161 165 167 170 173 175 171 172 173 175 182 179 178 178 176 171 180 179 183 193 171 177 173 168 155 139 127 158 226 182
254 260 269 280 264 235 257 260 242 198 184 171 179 168 165 160 158 160 164 167 170 171 174 178 176 174 176 171 175 183 171 174 174 177 180 184 183 192 192 174 192 174 179 172 183 179 194 222 195
247 250 262 275 277 270 260 261 212 181 182 187 187 176 168 165 158 160 165 171 171 172 175 172 170 172 177 175 183 181 183 187 185 178 180 180 189 189 189 185 186 190 195 165 195 193 194 205 217
245 260 257 262 267 270 272 267 217 175 183 195 184 169 157 157 156 159 164 166 167 169 168 167 167 173 177 183 189 187 192 191 185 179 179 182 190 195 194 188 188 193 193 179 196 166 202 217 226
241 249 255 258 261 255 256 262 237 181 182 183 154 145 142 146 150 152 155 155 161 165 164 166 168 174 178 185 189 191 196 192 190 191 187 189 189 195 193 189 186 191 191 179 175 171 201 234 263
222 229 233 234 233 245 246 248 222 160 162 160 147 146 144 147 145 147 153 157 162 166 164 165 167 175 181 186 192 195 199 194 198 199 195 195 190 190 192 190 183 191 190 182 178 184 207 207 224
213 225 235 245 245 247 240 233 203 141 127 128 135 137 139 141 141 146 150 154 161 163 161 163 168 175 181 186 190 194 195 198 203 206 203 200 194 185 182 181 183 194 193 193 178 187 203 200 208
220 222 242 259 275 273 215 189 154 150 137 137 140 143 143 138 140 144 149 153 157 157 157 160 164 168 174 180 184 192 198 201 200 198 206 200 191 188 175 175 184 192 192 187 177 205 207 181 196
240 225 231 250 269 277 249 205 185 166 156 154 155 151 144 141 143 143 145 147 148 149 149 155 159 164 170 177 186 188 193 192 195 200 202 195 191 183 169 173 182 186 184 186 188 208 195 182 200
222 237 241 247 253 261 267 270 123 145 166 170 157 148 144 144 142 138 139 139 142 142 146 150 154 161 168 174 180 181 185 187 192 195 192 182 172 170 176 184 185 184 185 188 196 218 196 191 208
222 225 232 239 250 263 267 235 138 156 176 161 144 136 138 137 133 134 136 136 139 142 146 151 156 162 167 167 169 176 181 180 184 187 180 169 167 174 180 189 193 192 189 188 195 214 207 194 207
Height
1486 1485 1485 1488 1486 1484 1479 1471 1468 1470 1472 1473 1473 1475 1479 1484 1489 1502 1504 1506 1508 1511 1514 1517 1520 1522 1525 1527 1529 1531 1533 1535 1536 1538 1539 1540 1541 1542 1543 1544 1545 1546 1547 1548 1549 1550 1551 1552 1553
1486 1486 1489 1488 1487 1491 1482 1470 1471 1472 1474 1474 1476 1479 1483 1489 1493 1500 1504 1508 1510 1512 1515 1518 1521 1524 1526 1529 1531 1533 1535 1537 1538 1540 1541 1542 1543 1545 1546 1546 1547 1548 1549 1550 1551 1552 1553 1555 1556
1487 1488 1489 1482 1484 1487 1481 1470 1470 1472 1474 1476 1479 1484 1488 1494 1498 1502 1506 1509 1512 1515 1517 1520 1523 1525 1528 1530 1533 1535 1537 1538 1540 1542 1543 1544 1546 1547 1548 1549 1550 1551 1552 1553 1554 1555 1556 1557 1558
1490 1489 1486 1481 1480 1471 1468 1468 1469 1472 1475 1477 1480 1487 1494 1497 1500 1504 1508 1511 1513 1516 1518 1521 1524 1527 1529 1532 1534 1536 1538 1540 1542 1544 1545 1547 1548 1549 1550 1551 1552 1553 1554 1555 1556 1557 1558 1559 1560
1492 1489 1486 1484 1476 1465 1464 1467 1470 1473 1475 1478 1482 1490 1497 1501 1502 1506 1510 1513 1515 1517 1519 1523 1525 1528 1531 1533 1536 1538 1540 1542 1544 1545 1547 1549 1550 1551 1552 1553 1554 1555 1556 1557 1558 1559 1560 1561 1563
1491 1485 1491 1487 1475 1466 1466 1468 1470 1473 1477 1480 1485 1492 1500 1503 1505 1508 1511 1514 1517 1518 1520 1523 1526 1529 1532 1535 1537 1539 1541 1543 1545 1547 1549 1550 1552 1553 1554 1555 1556 1557 1559 1560 1560 1561 1562 1564 1565
1490 1484 1484 1480 1474 1469 1467 1468 1470 1473 1477 1479 1484 1494 1501 1504 1506 1509 1513 1516 1518 1520 1521 1524 1527 1530 1533 1536 1538 1540 1543 1545 1547 1549 1550 1552 1553 1555 1556 1557 1558 1560 1561 1562 1563 1564 1565 1566 1567
1486 1482 1480 1475 1473 1471 1467 1468 1471 1474 1478 1480 1483 1492 1500 1504 1507 1510 1513 1516 1519 1521 1522 1525 1527 1530 1533 1536 1539 1541 1544 1546 1548 1550 1552 1553 1555 1556 1558 1559 1560 1561 1563 1564 1565 1566 1567 1568 1569
1485 1485 1484 1475 1470 1469 1467 1468 1471 1474 1478 1480 1483 1488 1495 1501 1506 1509 1513 1517 1519 1521 1523 1526 1528 1531 1534 1537 1540 1542 1545 1547 1549 1551 1553 1555 1556 1558 1559 1561 1562 1563 1564 1565 1567 1568 1569 1570 1571
1482 1484 1477 1468 1466 1466 1468 1470 1470 1474 1479 1482 1486 1491 1496 1500 1504 1508 1512 1515 1518 1521 1523 1526 1528 1531 1535 1538 1540 1542 1545 1547 1550 1552 1554 1556 1558 1560 1561 1562 1564 1565 1566 1567 1569 1570 1571 1572 1573
1478 1478 1472 1468 1468 1469 1469 1470 1470 1473 1479 1483 1487 1492 1496 1500 1504 1507 1511 1515 1518 1520 1524 1525 1528 1532 1536 1538 1540 1543 1545 1547 1550 1553 1555 1557 1559 1561 1562 1563 1565 1566 1567 1569 1570 1571 1572 1573 1575
1476 1473 1471 1471 1470 1471 1470 1470 1470 1472 1477 1480 1485 1489 1494 1499 1503 1506 1510 1514 1517 1520 1523 1526 1528 1532 1535 1538 1541 1544 1546 1548 1551 1553 1556 1558 1560 1562 1563 1564 1566 1567 1568 1570 1571 1572 1573 1574 1576
1474 1473 1471 1471 1471 1471 1471 1471 1471 1473 1476 1479 1484 1489 1493 1497 1502 1506 1510 1513 1516 1519 1522 1525 1528 1531 1534 1537 1541 1543 1546 1548 1550 1553 1556 1558 1561 1562 1564 1565 1567 1568 1570 1571 1572 1573 1574 1575 1577
1473 1471 1470 1469 1469 1469 1470 1469 1471 1472 1475 1479 1484 1488 1492 1496 1500 1504 1508 1511 1514 1517 1521 1523 1526 1530 1533 1536 1540 1542 1545 1547 1550 1552 1555 1558 1561 1562 1564 1565 1567 1568 1570 1571 1572 1574 1575 1576 1577
1474 1473 1470 1466 1465 1466 1468 1471 1469 1472 1475 1478 1482 1486 1490 1494 1499 1503 1506 1509 1512 1515 1519 1522 1524 1528 1532 1535 1538 1542 1544 1546 1549 1552 1554 1557 1560 1561 1564 1566 1567 1568 1570 1571 1572 1574 1575 1576 1577
1472 1474 1474 1462 1461 1463 1470 1478 1468 1471 1474 1477 1480 1484 1488 1493 1497 1502 1505 1508 1511 1514 1517 1520 1523 1525 1529 1533 1537 1540 1543 1545 1548 1551 1553 1556 1558 1561 1563 1565 1567 1568 1570 1571 1573 1574 1575 1576 1577
1472 1475 1468 1460 1457 1460 1466 1472 1467 1469 1472 1475 1478 1483 1488 1493 1497 1500 1504 1506 1509 1512 1515 1518 1521 1523 1527 1531 1534 1538 1541 1544 1546 1549 1552 1555 1557 1560 1562 1565 1566 1568 1570 1571 1573 1574 1575 1576 1577
1471 1465 1461 1460 1456 1460 1465 1466 1463 1466 1469 1472 1477 1482 1487 1491 1495 1499 1502 1505 1508 1511 1513 1516 1519 1522 1525 1528 1532 1536 1539 1541 1545 1548 1551 1554 1556 1559 1562 1564 1565 1568 1569 1571 1572 1573 1574 1575 1576
1464 1464 1465 1457 1453 1462 1466 1464 1461 1462 1466 1470 1475 1480 1486 1490 1495 1498 1501 1504 1507 1509 1511 1514 1517 1520 1523 1526 1530 1533 1537 1540 1543 1546 1549 1552 1555 1558 1560 1563 1564 1566 1568 1570 1571 1572 1574 1575 1576
1466 1469 1467 1459 1455 1462 1466 1464 1458 1459 1464 1469 1473 1478 1483 1489 1493 1497 1500 1503 1505 1507 1509 1512 1515 1518 1521 1525 1528 1532 1535 1539 1542 1545 1548 1551 1553 1556 1559 1561 1563 1565 1567 1568 1570 1571 1573 1574 1575
1469 1470 1467 1464 1457 1458 1465 1467 1460 1458 1462 1467 1472 1476 1480 1486 1491 1495 1499 1502 1504 1505 1508 1510 1513 1516 1520 1524 1527 1531 1534 1537 1540 1543 1546 1548 1551 1554 1557 1559 1561 1563 1565 1567 1568 1570 1571 1573 1574
1472 1463 1463 1465 1469 1470 1465 1478 1463 1458 1463 1466 1469 1473 1478 1483 1488 1493 1497 1500 1502 1504 1507 1509 1512 1515 1519 1522 1525 1528 1531 1534 1537 1541 1544 1546 1549 1552 1555 1557 1559 1561 1564 1566 1567 1569 1570 1572 1573
1464 1458 1461 1465 1470 1473 1466 1472 1467 1458 1465 1465 1466 1470 1475 1481 1486 1491 1495 1498 1501 1504 1506 1509 1511 1514 1517 1520 1523 1526 1530 1533 1536 1539 1542 1544 1547 1550 1553 1555 1557 1559 1562 1563 1565 1567 1569 1570 1571
1458 1461 1465 1467 1471 1485 1471 1473 1472 1460 1463 1462 1464 1469 1474 1480 1486 1490 1495 1498 1501 1503 1505 1508 1509 1512 1515 1518 1521 1524 1527 1530 1533 1536 1539 1542 1544 1547 1550 1552 1555 1557 1559 1561 1563 1565 1567 1568 1569
1460 1472 1487 1490 1489 1483 1463 1468 1465 1453 1454 1457 1464 1469 1474 1479 1485 1490 1494 1497 1500 1502 1504 1506 1508 1510 1513 1515 1518 1521 1525 1528 1530 1533 1536 1539 1541 1544 1547 1550 1552 1555 1557 1559 1561 1562 1564 1566 1567
1460 1467 1486 1492 1488 1480 1467 1472 1461 1448 1452 1457 1462 1468 1473 1479 1485 1490 1494 1497 1499 1502 1503 1505 1507 1509 1511 1513 1516 1519 1522 1525 1528 1531 1533 1536 1539 1541 1544 1546 1549 1552 1554 1557 1558 1560 1562 1563 1565
1457 1462 1457 1466 1468 1476 1471 1464 1459 1451 1453 1458 1463 1468 1473 1479 1484 1489 1493 1496 1499 1501 1503 1504 1506 1508 1510 1512 1514 1517 1519 1522 1525 1528 1531 1533 1536 1539 1541 1543 1546 1549 1552 1554 1556 1558 1560 1561 1562
1447 1450 1459 1468 1482 1485 1472 1468 1466 1459 1457 1458 1462 1467 1473 1478 1483 1488 1492 1496 1499 1501 1502 1504 1506 1507 1509 1511 1513 1515 1517 1519 1522 1525 1527 1530 1533 1536 1539 1541 1544 1546 1549 1551 1553 1555 1557 1558 1560
1451 1453 1454 1458 1461 1477 1483 1476 1451 1455 1457 1458 1461 1466 1472 1478 1483 1488 1492 1495 1498 1501 1502 1504 1505 1507 1509 1510 1511 1513 1515 1517 1520 1522 1525 1528 1531 1533 1536 1539 1541 1543 1545 1548 1550 1552 1554 1556 1557
1440 1447 1452 1468 1468 1463 1471 1473 1449 1453 1455 1457 1461 1466 1472 1478 1483 1488 1492 1495 1498 1501 1502 1504 1505 1507 1508 1509 1511 1512 1515 1517 1519 1521 1523 1526 1529 1531 1534 1537 1539 1541 1543 1545 1547 1549 1551 1553 1554